Wind_Speed
30 30 29 29 29 29 29 27 27 26 26 25 24 22 20 18 15 12 10 9 10 11 11 11 11 11 10 8 7 6 5 3 3 2 2 2 2 2 2 2 2 2 2 2 2 2 3 3 3 3 4 4 4 3 3 3 2 2 2 2 1 1 0 0 0 0 1 0 1
31 31 30 30 29 29 28 27 26 26 26 25 24 22 21 18 15 13 13 13 13 14 13 13 13 12 10 9 7 6 5 4 3 2 2 1 1 1 1 1 2 2 2 2 2 3 3 3 3 4 4 5 5 4 4 4 4 3 3 3 2 2 1 1 1 0 0 1 1
32 31 31 30 30 29 29 28 28 27 27 25 24 23 21 19 17 16 15 15 15 15 15 14 14 12 11 9 8 6 5 4 3 2 2 2 1 1 1 2 2 2 2 2 2 3 3 4 4 4 5 5 5 5 5 5 5 4 4 3 3 2 2 2 1 1 1 2 2
32 32 32 31 31 31 30 29 29 28 27 26 25 23 21 19 17 16 16 16 16 16 16 15 14 12 10 9 8 7 5 4 3 3 2 2 2 2 2 2 2 2 2 2 3 3 4 4 4 5 5 5 6 5 5 5 5 5 4 4 3 3 2 2 2 2 2 3 4
33 33 33 32 32 32 31 30 30 29 28 27 26 24 21 19 17 17 17 17 17 16 16 15 14 12 10 9 8 7 6 4 3 3 3 2 2 2 2 3 3 3 3 3 3 4 4 4 5 5 5 5 5 5 5 5 5 5 5 4 4 3 3 3 3 3 4 4 5
33 33 33 33 33 32 31 31 30 29 28 27 26 24 21 19 18 18 18 18 17 17 16 15 13 12 11 10 9 7 6 5 4 4 3 3 3 3 3 3 3 3 3 3 4 4 4 4 4 4 4 5 5 5 5 6 6 6 5 5 4 4 4 3 4 4 5 5 6
33 33 33 33 33 32 32 31 30 29 28 27 26 24 22 20 19 19 19 18 18 17 17 15 13 12 11 10 9 8 7 6 5 4 4 4 3 4 4 4 4 4 4 4 4 4 4 4 4 4 4 5 6 6 7 7 7 7 6 5 5 5 4 4 5 5 6 6 7
33 33 34 34 33 33 32 31 30 29 28 27 25 23 21 20 20 19 19 19 19 19 17 15 13 12 11 10 9 8 7 6 6 5 4 4 4 4 4 5 4 4 4 4 4 5 4 4 4 5 6 6 7 7 8 8 8 7 7 6 6 6 6 6 6 6 7 8 8
33 33 34 34 34 33 32 31 30 29 28 27 24 22 21 20 19 19 20 20 20 18 16 14 13 12 11 10 9 9 8 7 6 5 5 4 5 5 5 5 5 5 4 4 5 5 5 5 5 6 7 7 8 8 8 8 8 8 8 7 7 6 6 7 7 7 8 9 9
34 34 35 34 34 33 32 30 30 29 28 26 23 21 20 19 19 20 20 21 20 18 16 14 13 12 12 11 10 9 8 7 6 5 5 5 5 5 6 6 5 5 5 5 5 5 5 5 5 6 7 8 8 9 9 9 9 9 8 8 8 7 7 7 8 9 9 10 10
35 35 35 35 34 33 32 30 29 28 27 24 22 21 20 19 19 20 20 20 19 17 16 14 13 13 12 11 10 9 8 7 6 5 5 5 5 6 6 6 6 5 5 5 5 4 4 5 5 6 7 8 9 9 9 9 9 9 9 9 8 8 8 8 9 10 10 11 11
35 35 35 34 34 32 31 30 29 28 25 23 21 20 19 19 20 20 20 19 17 16 15 14 13 13 12 11 10 9 8 7 6 6 6 6 6 6 6 6 6 5 5 4 4 4 4 5 5 6 7 8 9 9 10 10 10 10 9 9 9 9 9 10 10 11 11 12 12
35 35 34 34 33 31 30 29 28 26 23 21 19 19 19 19 19 19 18 17 16 15 14 14 13 12 12 11 10 9 9 8 7 7 6 6 6 6 6 6 5 5 4 4 4 4 4 5 5 6 7 8 9 9 10 10 10 10 10 10 10 10 11 11 11 12 12 12 12
35 34 34 33 32 30 29 28 26 24 22 20 19 19 19 19 19 18 17 16 15 15 14 13 13 12 12 11 10 10 9 9 8 8 7 7 6 6 6 6 6 5 5 4 4 4 5 5 5 6 7 8 9 9 10 10 11 11 11 11 11 11 12 12 12 13 13 12 12
34 34 33 33 31 30 29 27 25 23 21 20 20 20 20 20 19 18 17 16 15 14 14 13 13 13 12 11 10 10 10 9 9 8 8 7 7 7 7 7 7 6 5 5 5 5 5 6 6 7 7 8 9 10 10 11 11 11 11 12 12 12 12 13 13 13 13 12 12
34 34 34 33 32 30 29 27 25 24 23 22 22 21 21 21 20 19 18 17 15 14 14 14 14 13 12 12 11 11 10 10 9 9 8 8 8 8 8 8 8 7 7 6 6 6 6 6 7 7 8 8 9 10 10 11 11 11 12 12 13 13 13 13 13 13 13 13 12
35 34 33 33 31 30 29 27 26 25 24 24 24 23 23 22 21 21 19 18 16 15 15 14 14 13 13 13 12 12 11 11 10 10 9 9 9 9 9 9 9 9 8 8 8 7 7 7 8 8 8 9 9 10 10 11 11 12 12 13 13 14 14 14 14 13 13 13 13
34 34 33 32 31 30 29 28 27 26 26 25 25 25 24 23 23 22 21 19 17 16 16 15 14 14 14 13 13 13 12 11 11 10 10 10 10 10 10 10 10 10 10 9 9 9 8 8 9 9 9 9 9 10 10 11 12 12 13 14 14 15 15 15 14 14 13 13 13
35 35 34 33 31 30 28 27 27 26 26 26 26 25 24 24 23 22 21 20 18 17 16 16 15 15 14 14 14 13 13 12 11 11 11 11 11 11 11 11 11 11 11 11 10 10 9 9 9 10 10 10 10 10 11 11 12 13 14 15 15 15 15 15 14 14 13 13 13
36 35 34 33 31 29 28 27 26 25 25 25 25 25 24 24 23 22 21 20 19 18 17 16 16 16 15 15 14 14 13 12 12 12 12 12 12 12 12 12 12 12 12 12 11 11 10 10 10 10 11 11 11 11 12 12 13 14 15 16 16 16 16 15 14 14 13 13 13
35 35 34 33 31 29 28 26 25 25 25 25 25 25 24 24 23 22 21 20 19 18 18 17 17 16 16 15 15 14 14 13 13 12 13 13 13 13 13 13 13 13 13 13 13 12 11 11 11 11 12 12 12 12 13 13 14 15 16 17 17 17 16 15 14 14 13 13 13
35 34 33 32 30 29 28 27 26 26 26 26 25 25 24 24 23 23 22 21 20 20 19 18 17 16 16 15 15 14 14 13 13 13 14 14 14 14 14 14 15 14 14 14 14 13 13 12 12 12 13 13 14 14 14 14 15 16 17 17 18 17 17 16 15 14 13 13 13
34 33 31 30 29 29 28 28 28 28 27 26 26 25 25 25 24 23 22 21 21 21 20 19 17 16 16 15 14 14 14 14 14 14 15 15 15 15 16 16 16 16 16 15 15 14 14 14 13 14 14 15 15 15 15 15 16 17 18 18 18 18 17 16 15 14 13 13 13
32 32 31 30 29 29 29 29 29 29 28 27 26 26 26 25 25 24 23 23 22 21 20 19 17 16 16 15 15 15 15 15 15 15 16 16 16 17 17 17 17 17 17 17 16 16 15 15 15 15 15 16 16 16 16 17 17 17 18 19 19 18 18 16 15 14 13 13 13
31 31 31 30 30 30 29 29 29 29 28 27 26 26 26 26 26 25 25 24 23 22 20 19 17 17 16 16 16 16 16 16 16 16 17 17 17 18 18 18 18 18 18 17 17 17 17 17 17 17 17 17 17 17 17 17 18 18 19 19 19 19 18 17 15 14 13 13 13
31 31 31 31 31 31 30 30 29 29 28 28 27 26 27 27 27 26 25 24 23 21 20 19 18 18 18 18 17 17 17 17 17 17 17 18 18 19 19 19 19 19 19 18 18 18 18 18 18 18 18 18 18 19 19 18 18 19 20 20 20 20 18 17 15 14 13 12 12
32 32 32 32 31 31 31 30 29 29 29 29 28 28 28 28 28 27 26 25 23 21 20 19 19 19 19 19 19 19 18 18 18 18 18 19 19 20 20 20 20 20 20 19 19 19 19 19 19 19 19 20 20 20 20 19 19 20 20 21 21 20 19 17 16 14 13 12 12
33 32 32 32 32 32 32 31 30 30 30 31 30 29 29 29 28 27 26 24 23 21 20 20 20 20 20 20 20 19 19 19 19 19 19 20 20 21 21 21 21 21 20 20 20 19 20 20 20 20 21 21 21 21 21 20 20 20 21 21 21 21 19 17 16 14 13 12 11
34 33 32 32 32 33 32 31 31 31 32 31 31 30 29 29 28 28 26 24 23 22 21 21 20 20 21 21 20 20 19 19 19 20 20 21 21 22 22 22 22 22 21 21 20 20 20 20 21 22 22 22 22 22 21 20 20 21 21 22 22 21 19 17 16 14 13 12 11
34 33 33 32 33 33 33 33 32 33 33 32 31 30 29 29 28 27 26 24 23 22 21 21 21 21 21 21 20 20 20 20 20 20 21 22 22 23 23 23 23 22 22 21 21 21 21 21 22 23 23 24 23 23 22 21 21 21 22 22 22 21 19 18 16 14 13 12 11
34 33 33 33 33 34 34 34 34 33 33 32 31 30 30 29 29 27 26 24 22 21 21 21 21 21 21 21 21 20 20 20 21 22 22 23 23 24 24 24 23 23 23 22 22 22 22 22 23 23 24 24 24 23 22 22 21 21 22 22 22 21 20 18 16 14 13 11 10
34 33 33 33 34 34 35 35 34 34 33 32 31 30 30 30 29 27 25 23 22 21 21 21 21 21 21 21 21 21 21 21 22 23 23 23 24 24 24 24 24 24 24 24 24 23 23 23 23 24 24 24 24 23 22 22 21 21 22 22 22 21 20 19 17 15 13 11 10
33 33 33 34 34 34 34 34 34 33 32 31 30 30 30 30 28 26 24 23 22 22 22 22 22 22 22 21 21 21 22 22 23 23 23 23 24 24 24 25 25 25 25 25 25 24 24 24 24 24 25 24 24 23 22 22 21 21 22 22 22 22 21 19 18 16 13 11 10
33 33 33 34 34 33 32 32 32 31 31 30 30 30 30 29 27 25 24 23 22 22 21 21 21 21 21 21 21 22 22 23 23 23 23 23 23 24 24 25 25 26 26 26 26 25 25 25 25 25 25 24 24 23 22 22 22 22 23 23 23 22 21 20 18 16 14 12 11
33 33 33 32 32 31 30 30 30 30 30 30 30 30 30 28 27 25 24 23 22 21 21 21 21 21 21 22 22 23 23 23 23 23 23 23 23 24 25 26 26 27 27 28 27 27 26 26 25 25 24 24 24 23 23 22 22 23 23 23 23 23 22 20 18 16 14 13 12
34 33 32 31 30 30 30 30 30 29 30 30 30 30 29 27 26 24 23 22 21 20 20 21 21 22 22 22 22 22 22 22 22 22 22 22 23 24 26 27 28 28 29 29 29 28 27 26 25 25 24 24 24 24 23 23 23 24 24 24 24 24 23 21 19 17 15 13 13
33 32 31 30 29 29 29 30 30 30 30 30 30 30 28 26 25 23 22 21 20 20 21 21 22 22 22 22 21 21 20 20 21 21 22 22 23 25 27 28 29 29 29 29 29 28 27 26 25 24 24 25 25 24 24 24 24 24 25 25 25 24 23 22 20 18 16 15 14
32 31 31 30 29 29 29 30 30 30 31 30 30 28 27 25 23 22 20 19 19 20 21 22 22 22 21 20 19 19 19 19 20 21 21 22 23 24 26 28 28 28 27 26 25 25 24 24 24 24 24 25 25 25 25 25 25 26 26 26 26 25 24 22 20 19 17 16 16
30 30 30 30 29 29 30 30 30 30 30 30 29 27 25 23 22 20 19 19 20 21 22 22 21 20 19 18 18 18 18 19 19 19 20 20 21 22 24 25 25 24 23 22 21 21 22 22 23 23 24 25 25 25 25 26 26 27 27 27 27 26 24 23 21 20 19 17 17
29 29 29 29 29 30 30 30 30 30 30 29 28 26 24 22 20 19 19 19 20 21 21 20 19 18 17 17 17 18 18 19 18 18 19 19 19 20 21 22 22 22 21 20 20 20 20 21 22 23 24 25 25 26 26 26 27 27 28 28 27 27 25 24 23 21 20 19 18
28 29 29 29 29 30 30 30 30 30 29 28 27 24 22 20 19 19 19 20 20 20 19 18 17 17 17 17 18 18 19 19 19 19 18 19 19 19 20 21 21 21 20 20 20 20 20 20 21 22 23 24 25 26 26 27 28 28 29 29 28 27 26 25 24 23 22 21 20
Wind_Direction
205 203 201 197 195 193 192 192 191 189 186 183 179 175 171 168 167 173 188 203 213 217 219 221 221 217 214 214 220 225 228 229 230 235 251 269 284 302 316 323 326 326 327 332 339 345 347 346 342 334 327 320 313 298 275 260 247 248 251 242 231 233 266 299 83 108 122 101 33
206 204 201 198 196 195 194 193 191 188 186 183 180 177 174 175 181 192 205 214 217 217 216 215 213 210 208 211 218 221 218 215 214 221 230 242 260 280 291 294 296 298 301 310 321 329 332 330 324 316 310 305 299 284 263 249 239 237 240 236 226 223 224 214 203 211 265 309 333
206 204 202 199 197 195 194 192 190 187 185 183 182 181 182 187 196 205 211 213 212 212 212 210 207 206 206 208 211 210 208 208 208 210 214 218 233 248 259 265 269 271 277 293 308 315 319 317 311 303 297 292 285 270 248 231 226 225 226 226 224 224 222 220 239 268 297 310 322
206 203 201 200 199 198 196 194 190 187 186 186 186 187 190 196 202 204 204 205 206 208 209 206 203 203 204 204 202 200 199 202 204 202 201 207 220 231 242 250 255 255 261 278 295 304 307 305 299 292 285 280 272 257 236 218 212 213 219 226 229 226 227 239 262 287 304 315 321
205 204 203 202 202 201 199 196 191 189 189 189 188 190 194 199 200 198 197 199 203 205 205 202 199 199 200 200 197 195 193 193 191 190 194 204 215 225 234 243 245 248 255 269 284 292 295 292 286 280 274 267 259 243 225 213 207 210 219 229 231 232 238 254 274 294 307 314 318
204 204 204 204 203 202 200 197 194 192 192 191 190 192 196 199 198 196 195 198 200 200 198 196 195 196 195 195 193 191 188 183 183 186 195 204 214 224 231 236 243 248 254 264 276 282 283 279 272 264 258 249 237 224 214 210 213 219 225 229 233 240 249 263 282 296 305 309 313
205 205 204 203 202 201 199 197 196 195 194 193 193 195 198 199 197 196 196 197 196 193 191 191 193 193 192 190 188 185 182 180 183 190 198 207 218 226 230 234 242 247 252 262 270 275 274 269 255 242 231 221 214 212 215 219 224 229 232 234 241 250 261 270 284 295 302 305 309
206 205 204 202 201 200 199 198 197 196 195 195 196 198 200 199 198 196 196 195 190 188 187 189 191 193 192 189 186 184 184 185 188 193 202 214 222 228 232 237 241 245 253 263 270 270 267 262 249 236 228 225 223 222 224 226 230 234 238 242 249 258 268 276 285 293 299 302 306
204 203 202 201 200 199 199 199 198 197 196 196 198 200 201 200 198 197 194 191 188 187 187 188 190 191 192 191 189 188 188 190 192 198 207 219 225 230 233 236 239 246 254 264 269 268 263 256 247 240 235 232 230 229 229 231 234 238 243 249 254 262 271 280 287 293 298 301 303
200 200 199 198 198 198 199 199 199 198 197 197 199 201 201 200 199 197 194 190 187 185 185 186 187 189 190 191 192 192 192 194 198 204 212 221 227 231 234 237 242 249 258 265 267 265 260 253 245 240 237 236 233 232 233 235 238 241 246 253 259 265 273 282 289 294 297 300 301
199 198 197 196 196 197 197 197 197 197 197 198 199 199 199 198 197 195 193 190 186 184 184 185 187 188 190 192 193 194 196 199 204 210 216 221 227 232 236 240 247 254 261 264 263 259 254 248 242 237 236 236 235 234 236 238 241 245 249 256 263 270 277 284 290 294 296 297 299
198 196 196 196 196 196 195 195 195 195 196 197 198 197 196 195 195 193 191 188 186 184 184 186 188 190 192 194 195 197 201 204 208 212 215 219 224 230 236 242 249 257 263 264 262 256 250 245 240 236 235 235 236 237 239 241 244 248 253 258 266 274 280 286 289 292 293 295 297
196 195 195 195 195 194 193 193 194 194 195 195 195 194 193 193 193 192 190 188 187 186 185 187 190 193 195 196 198 201 204 207 210 213 215 218 223 229 235 242 249 257 263 266 265 259 251 246 243 240 238 238 239 240 242 245 247 251 256 262 269 276 282 286 288 290 290 292 294
195 195 194 194 194 193 192 192 193 193 193 192 192 192 191 191 191 191 191 191 190 188 188 189 192 195 198 200 202 204 207 209 211 213 216 220 225 231 237 243 250 257 264 269 270 264 257 252 249 247 245 243 243 244 246 249 251 255 260 266 272 278 282 284 286 286 287 288 292
195 195 195 195 193 192 191 191 192 192 191 191 192 192 192 191 191 191 192 192 192 193 193 194 194 196 200 203 206 208 210 211 212 215 219 223 228 234 240 244 251 257 264 269 270 267 262 258 256 253 251 249 248 248 249 251 255 259 264 270 275 278 280 281 281 282 283 285 290
195 195 195 194 192 191 191 191 191 191 192 192 194 194 193 192 191 191 192 193 195 197 198 199 198 199 201 205 209 211 212 213 215 219 223 228 233 238 243 247 251 256 262 266 267 265 263 261 259 258 256 254 252 252 252 254 258 262 266 271 274 276 276 276 277 278 280 284 290
195 195 194 192 191 191 191 192 192 193 193 195 195 195 194 193 191 191 192 194 196 199 201 203 204 204 205 208 211 212 214 216 220 224 229 234 238 242 246 249 253 257 261 265 265 263 261 259 257 258 258 257 255 254 255 257 260 263 267 270 271 272 272 273 273 275 278 283 291
195 194 193 192 191 192 192 193 194 195 195 196 196 196 195 194 192 191 192 194 198 201 203 205 207 209 210 211 213 215 217 220 225 230 235 239 243 247 251 254 255 258 261 264 264 263 260 257 256 256 257 258 258 258 258 260 262 264 266 267 268 268 268 269 270 273 277 283 292
194 193 192 192 192 193 194 195 196 197 198 198 197 195 195 194 193 192 193 195 199 203 206 207 210 212 215 216 217 218 221 226 230 236 240 244 248 251 254 256 258 259 261 263 264 263 261 258 257 257 258 259 259 260 260 261 263 264 264 265 265 265 266 266 268 272 276 284 293
195 194 193 193 194 195 195 197 199 200 200 199 197 195 194 195 195 195 195 197 200 205 209 211 212 214 216 218 220 222 226 231 236 240 244 247 250 253 256 258 259 260 261 263 263 262 261 261 260 260 259 260 261 261 262 262 263 262 263 263 263 263 264 265 267 271 276 284 294
197 196 195 193 194 195 196 198 201 202 202 199 197 196 195 196 197 199 200 201 203 206 209 213 215 216 217 219 221 225 229 234 239 244 247 250 253 255 258 260 260 261 262 262 263 262 261 262 262 261 260 260 261 263 263 263 262 261 261 261 262 262 262 263 266 270 277 286 295
197 197 196 195 195 196 197 198 200 201 201 200 198 197 197 198 200 202 203 204 206 207 210 214 217 218 220 221 224 228 232 237 242 247 249 251 253 256 258 260 260 261 261 262 262 263 263 263 263 262 261 261 262 264 265 264 263 261 260 260 260 260 261 262 265 269 277 286 295
196 196 197 197 197 198 199 198 199 199 200 200 200 199 199 201 202 204 205 206 207 209 211 214 217 219 222 224 228 231 235 239 244 248 251 253 255 256 257 258 259 260 262 263 264 264 265 264 263 262 261 262 264 265 265 264 262 260 259 259 258 258 259 260 264 269 277 285 293
195 196 197 199 200 200 200 199 198 198 199 200 201 201 201 203 204 204 205 206 208 210 212 215 217 220 223 226 229 233 236 240 245 249 252 254 256 257 257 258 259 261 263 265 267 268 267 266 264 263 262 263 265 266 266 265 262 259 258 257 257 257 257 258 262 268 276 284 292
197 198 200 201 201 202 202 200 199 199 201 202 204 203 203 205 205 205 206 206 208 210 212 215 218 220 223 226 229 233 238 243 247 250 252 254 255 256 257 259 260 261 264 266 268 269 269 268 267 265 264 264 265 266 266 264 261 259 257 257 256 255 255 256 259 265 273 283 292
200 201 202 201 202 203 203 203 203 205 205 204 204 205 206 205 206 206 206 207 207 209 212 215 218 221 223 226 229 234 239 244 249 252 254 255 255 256 257 258 260 262 263 266 267 268 269 268 267 266 264 264 264 265 264 262 259 257 256 256 255 254 253 253 256 263 272 282 291
202 202 202 202 202 202 203 205 208 209 208 206 205 204 204 205 206 206 207 207 208 209 213 216 219 222 224 227 230 235 240 245 251 254 257 258 258 257 257 258 260 261 263 265 267 268 268 267 266 265 264 263 264 264 263 261 258 256 255 254 253 252 251 252 255 262 272 282 290
201 202 202 202 201 202 203 206 210 211 209 207 205 204 204 204 205 206 206 206 208 210 214 217 220 223 225 228 232 237 243 249 254 258 260 261 261 259 259 258 259 261 263 265 266 267 267 266 265 264 263 263 263 263 263 260 257 255 253 252 251 250 250 251 255 263 272 282 291
202 203 203 202 201 202 203 206 210 211 209 207 205 204 204 204 205 205 205 206 208 211 215 219 222 224 227 230 235 241 247 253 258 263 265 264 262 260 259 259 259 261 263 265 266 266 265 265 263 262 262 262 262 262 261 260 257 254 252 250 249 248 248 250 255 262 271 281 291
201 202 202 202 202 202 204 207 210 210 208 206 204 204 204 205 205 205 204 206 209 213 218 222 223 225 229 234 239 245 251 257 262 266 268 267 265 262 260 259 260 262 264 266 266 266 265 264 263 262 261 261 261 261 260 259 256 253 251 249 247 247 247 250 254 261 270 281 290
200 201 202 202 202 203 205 208 209 208 206 204 203 203 204 205 205 204 205 207 212 217 221 224 225 228 232 238 243 249 254 260 265 268 269 269 267 264 261 260 261 263 265 267 267 266 265 264 262 261 261 261 260 260 259 257 255 253 250 247 246 246 247 249 254 260 268 278 287
200 201 202 202 202 204 206 207 207 206 204 203 203 204 205 205 205 205 207 210 215 219 221 223 226 230 235 241 246 252 258 263 267 269 270 270 268 266 263 261 261 264 266 268 267 266 265 264 263 262 261 260 259 258 258 256 254 252 249 247 246 246 247 249 252 258 266 275 283
200 201 201 201 202 204 205 205 204 203 202 202 203 205 205 205 205 206 209 213 217 219 221 224 228 233 238 243 249 255 261 265 269 271 272 272 270 267 264 262 263 265 267 268 268 267 266 265 264 263 261 260 258 257 256 254 252 249 247 245 245 245 246 248 252 258 265 272 280
200 200 201 201 202 203 203 202 201 200 201 202 204 205 206 205 205 207 211 215 218 220 223 227 232 237 242 247 253 259 265 269 271 273 274 273 272 268 265 263 265 267 269 270 269 268 267 266 265 263 261 259 257 255 254 251 248 246 244 243 243 244 245 247 251 257 264 272 278
200 200 199 200 201 201 200 199 199 199 201 202 204 205 206 205 207 209 213 216 218 221 224 230 235 239 244 250 256 262 267 270 272 274 275 275 273 269 266 265 266 268 270 271 271 270 269 268 266 263 260 257 254 253 251 248 245 243 242 242 242 243 245 247 250 257 264 271 277
200 199 199 199 199 199 198 198 198 199 201 203 205 205 205 206 209 212 215 217 218 221 226 231 236 241 247 254 260 265 269 271 273 275 276 275 273 269 267 266 268 270 272 273 274 274 273 271 267 263 258 254 252 250 249 247 244 243 242 242 242 243 245 247 250 256 263 270 275
199 199 198 198 198 197 197 198 198 200 202 204 205 205 206 208 211 214 216 217 219 224 229 234 239 245 252 259 265 269 272 274 277 278 278 277 274 272 270 270 271 273 276 277 278 278 276 273 268 261 255 251 249 248 246 244 243 242 241 242 242 244 245 247 250 255 260 267 272
199 199 199 198 197 197 198 198 199 201 203 205 206 206 207 209 212 213 215 217 221 227 232 238 244 251 258 265 269 272 275 277 279 281 281 280 278 276 275 275 276 277 278 279 279 278 276 273 267 260 254 250 248 247 245 243 241 241 241 242 243 244 245 247 250 253 258 264 269
199 199 199 199 199 199 199 200 201 203 204 205 206 207 208 210 212 213 215 219 225 231 237 243 250 258 264 268 271 274 277 278 280 281 281 280 279 278 277 277 278 278 278 279 278 277 275 272 266 259 254 251 249 248 246 243 241 241 241 242 243 244 245 247 249 252 256 261 265
199 200 201 201 201 201 200 201 203 205 206 206 206 207 209 210 211 213 217 223 229 235 242 249 256 262 266 269 272 275 277 278 278 278 278 277 276 276 276 277 278 278 278 277 276 275 273 270 265 258 253 250 249 247 246 244 242 241 241 242 243 244 245 247 249 251 255 259 263
200 201 202 203 203 202 202 202 204 205 206 206 207 208 210 210 212 215 220 226 232 239 247 254 259 263 266 269 272 275 276 277 276 276 275 275 274 275 275 277 278 278 278 277 276 274 272 269 263 257 252 249 248 247 245 244 242 241 241 242 244 245 246 247 249 251 254 258 261
Height
828 829 831 832 833 834 835 837 838 839 840 841 842 843 844 845 845 847 848 849 850 851 851 851 851 851 851 851 851 852 852 852 852 853 854 855 856 857 857 857 858 858 858 858 859 859 859 859 859 859 859 859 859 859 859 859 859 860 860 860 860 860 860 860 860 860 861 861 861
827 828 829 831 832 834 835 836 837 838 839 839 840 841 841 841 842 843 845 846 848 848 849 849 849 850 850 850 851 851 851 851 852 852 854 855 855 856 857 857 857 858 858 858 858 859 858 858 858 858 858 858 858 858 859 859 859 859 859 860 860 860 860 860 860 860 860 860 860
825 827 828 830 831 832 833 834 835 836 837 837 838 838 838 838 838 839 841 843 845 846 847 848 848 849 849 850 850 851 851 851 852 852 853 854 855 856 856 857 857 857 857 858 858 858 858 858 858 858 858 858 858 858 858 858 859 859 859 859 859 859 860 860 860 860 860 860 860
824 825 827 828 829 830 831 832 833 834 835 836 836 836 836 836 836 837 839 841 843 845 846 846 847 848 849 849 850 850 851 851 852 852 853 854 855 855 856 856 857 857 857 857 858 858 858 858 857 857 857 857 857 857 858 858 858 859 859 859 859 859 859 859 859 859 859 859 859
823 824 825 826 827 828 829 829 830 832 833 834 834 835 835 835 836 837 838 840 842 843 844 845 847 847 848 849 849 850 850 851 851 852 853 854 854 855 855 856 856 856 857 857 857 857 857 857 857 857 857 857 857 857 857 858 858 858 859 859 859 859 859 859 859 859 859 859 859
821 822 824 825 826 827 827 828 829 830 831 832 833 834 834 835 835 836 837 839 840 842 844 845 846 847 848 849 849 849 850 850 851 852 853 853 854 854 855 855 856 856 856 856 857 857 857 857 857 857 857 857 857 857 857 858 858 858 858 858 858 858 858 858 858 858 858 858 858
820 821 822 823 824 825 826 827 828 829 830 831 831 832 833 833 834 835 836 838 839 841 843 844 845 846 847 848 849 849 849 850 851 852 852 853 854 854 854 855 855 855 856 856 856 856 856 856 856 856 856 857 857 857 857 857 857 857 857 858 858 858 858 858 858 857 857 857 857
819 820 821 822 823 824 825 826 827 828 829 829 830 831 832 833 834 835 836 837 839 840 842 843 844 846 847 848 848 849 849 850 851 851 852 852 853 853 854 854 854 855 855 855 855 855 855 855 856 856 856 856 856 856 857 857 857 857 857 857 857 857 857 857 857 857 857 857 856
818 819 820 821 822 823 824 825 826 827 828 829 830 831 832 832 833 834 836 837 838 839 841 842 844 845 846 847 848 848 849 849 850 851 852 852 852 853 853 854 854 854 854 854 854 854 855 855 855 855 855 855 855 856 856 856 856 856 856 856 856 856 856 856 856 856 856 856 855
816 817 819 820 821 822 823 825 826 827 828 829 830 831 832 833 834 834 835 836 837 839 840 841 843 844 846 847 847 848 849 849 850 851 851 852 852 852 853 853 853 854 854 854 854 854 854 854 854 854 854 854 855 855 855 855 855 855 856 856 856 855 855 855 855 855 855 855 854
814 816 817 818 820 821 823 824 826 827 828 829 830 831 832 833 834 835 836 837 837 838 839 841 842 844 845 846 847 847 848 849 849 850 851 851 851 852 852 852 853 853 853 853 853 853 853 853 853 853 854 854 854 854 854 854 855 855 855 855 855 854 854 854 854 854 854 854 854
813 815 816 818 819 821 822 824 825 827 828 829 830 831 833 834 835 836 837 838 838 839 839 840 842 843 844 845 846 847 847 848 849 849 850 850 851 851 851 852 852 852 852 852 852 852 852 852 852 853 853 853 853 853 854 854 854 854 854 854 854 854 853 853 853 853 853 853 852
812 814 816 817 819 820 822 823 825 826 828 829 830 832 833 834 835 837 838 838 839 839 840 841 842 843 843 844 845 846 847 848 848 849 849 849 850 850 851 851 851 851 851 852 852 852 852 852 852 852 852 852 852 853 853 853 853 853 853 853 853 852 852 852 852 852 852 852 852
812 813 815 816 818 820 821 823 824 826 827 829 830 831 832 834 835 837 838 839 839 840 840 841 842 842 843 844 844 845 846 847 847 848 848 849 849 849 850 850 850 850 851 851 851 851 851 851 851 851 851 851 851 852 852 852 852 852 852 852 852 852 851 851 851 851 851 851 851
811 812 813 815 817 818 819 821 823 824 826 827 829 830 831 833 834 836 837 839 839 840 840 841 841 842 842 843 844 844 845 846 847 847 847 848 848 848 849 849 849 849 849 850 850 850 850 850 850 850 850 850 850 850 851 851 851 851 851 851 850 850 850 850 850 850 850 850 850
809 810 812 813 814 816 817 819 820 822 824 825 827 828 829 831 832 834 836 837 838 839 840 841 841 841 842 842 843 843 844 845 846 846 846 847 847 847 847 848 848 848 848 848 849 849 849 849 849 849 849 849 849 849 849 849 849 849 849 849 849 849 849 849 849 849 849 849 849
808 809 810 812 813 814 816 817 819 820 822 823 824 826 827 828 830 831 833 835 836 838 839 840 840 841 841 842 842 843 843 844 844 845 845 846 846 846 846 846 847 847 847 847 847 847 848 848 848 848 848 848 848 848 848 848 848 848 848 848 848 848 848 848 848 848 848 848 848
807 808 809 811 812 814 815 816 817 819 820 821 822 824 825 826 827 829 830 832 834 836 837 839 839 840 840 841 841 842 842 843 843 844 844 844 845 845 845 845 845 846 846 846 846 846 846 847 847 847 847 847 847 847 847 847 847 847 847 847 847 847 847 847 847 847 847 847 847
805 807 808 810 811 813 814 816 817 818 819 820 821 823 824 825 827 828 829 831 832 834 836 837 838 839 839 840 840 841 841 842 842 843 843 843 844 844 844 844 844 845 845 845 845 845 845 846 846 846 846 846 846 846 846 846 846 846 846 846 846 846 846 846 846 846 846 846 845
803 804 806 808 809 811 813 815 817 819 819 820 821 822 824 825 826 827 828 830 831 833 834 836 837 837 838 839 839 839 840 841 841 842 842 842 843 843 843 843 844 844 844 844 844 844 844 844 844 844 844 844 844 844 845 845 845 845 845 845 845 844 844 844 844 845 844 844 844
801 803 805 807 808 810 812 814 817 819 821 821 822 822 824 825 826 827 828 829 830 832 833 834 835 836 837 837 838 838 839 839 840 840 841 841 842 842 842 843 843 843 843 843 843 843 843 843 843 843 843 843 843 843 843 843 843 843 843 843 843 843 843 843 843 843 843 843 843
800 802 805 807 808 809 810 812 814 817 819 820 821 822 823 824 825 826 827 828 829 830 832 833 834 835 835 836 837 837 838 838 839 839 840 840 840 841 841 842 842 842 842 842 842 842 842 842 842 842 842 842 842 842 842 842 842 842 842 842 842 842 842 842 842 842 842 842 842
800 802 804 807 808 809 809 810 811 813 816 818 819 820 822 823 824 825 826 827 828 829 830 832 833 834 834 835 835 836 836 837 837 838 838 839 839 840 840 840 840 840 841 841 841 841 841 841 841 841 840 840 840 840 840 841 841 841 841 841 841 841 841 841 841 841 841 841 841
801 802 804 806 807 808 809 810 810 812 814 815 817 819 820 822 823 824 825 825 826 828 829 830 832 832 833 834 834 835 835 835 836 836 837 837 838 838 839 839 839 839 839 839 839 839 839 839 839 839 839 839 839 839 839 839 839 839 839 839 839 839 839 840 840 840 840 839 839
801 802 803 804 805 807 808 809 810 812 813 814 815 817 819 820 822 822 823 824 825 827 828 829 830 831 832 832 833 833 833 834 834 834 835 835 836 836 837 837 837 838 838 838 838 838 838 838 838 838 837 837 837 838 838 838 838 838 838 838 838 838 838 838 838 838 838 838 838
801 802 802 803 804 805 807 808 810 811 812 813 814 815 817 819 820 821 822 823 824 826 827 828 829 830 830 831 831 832 832 832 832 833 833 834 834 834 835 835 836 836 836 836 836 836 836 836 836 836 836 836 836 836 836 836 836 836 836 836 836 837 837 837 837 837 837 837 837
799 800 801 801 802 803 805 807 808 810 811 812 812 814 815 817 818 820 821 822 824 825 826 827 828 828 829 829 830 830 831 831 831 832 832 832 832 832 833 833 834 834 834 835 835 835 835 835 834 834 834 834 834 834 834 834 835 835 835 835 835 835 835 835 836 836 836 836 836
798 799 799 800 801 802 804 805 807 808 809 810 811 812 814 816 817 818 820 821 823 824 825 826 826 827 828 828 829 829 830 830 830 831 831 831 831 831 831 832 832 832 833 833 833 833 833 833 833 833 833 833 833 833 833 833 833 833 833 833 833 833 834 834 834 835 835 835 835
795 797 798 799 800 801 802 804 805 807 808 809 810 812 813 815 816 817 819 820 822 823 824 824 825 826 827 827 828 828 829 829 829 829 830 830 830 830 830 830 830 831 831 831 831 831 831 831 831 831 831 831 831 831 831 831 831 831 831 832 832 832 832 833 833 833 834 834 833
793 795 796 797 799 800 801 802 803 805 806 807 809 811 812 813 815 816 818 819 820 821 822 823 824 825 826 826 827 827 828 828 828 828 828 828 828 828 828 828 829 829 829 829 829 829 829 829 829 829 829 829 829 829 829 829 830 830 830 830 830 831 831 831 832 832 832 832 832
791 793 794 796 797 798 799 800 801 803 804 806 808 809 811 812 814 815 817 818 819 820 821 822 823 824 824 825 826 826 826 827 827 827 827 827 827 827 827 827 827 827 827 828 828 828 828 828 828 827 827 827 827 827 828 828 828 828 828 828 829 829 829 830 830 830 831 831 830
790 792 793 794 795 796 797 799 800 801 803 805 806 808 809 811 812 814 816 817 818 819 820 821 822 823 823 824 824 825 825 825 825 825 825 825 825 825 825 825 826 826 826 826 826 826 826 826 826 826 826 826 826 826 826 826 826 826 827 827 827 828 828 828 829 829 829 829 829
789 790 792 793 794 795 796 797 798 800 802 804 805 807 808 810 812 813 815 816 817 818 819 820 820 821 822 822 823 823 823 823 823 823 823 823 823 823 823 824 824 824 824 824 824 824 824 824 824 824 824 824 824 824 824 824 825 825 825 825 826 826 826 827 827 827 827 827 827
788 789 791 792 793 794 795 797 798 800 802 803 805 806 807 809 811 812 814 814 815 816 817 818 819 820 820 821 821 822 822 822 822 822 822 821 822 822 822 822 822 822 822 822 822 822 822 822 822 822 822 822 822 822 822 823 823 823 823 824 824 824 825 825 825 826 826 826 825
787 788 790 791 792 793 795 796 798 800 802 803 804 806 807 808 810 811 812 813 814 815 816 817 818 818 819 819 820 820 820 820 820 820 820 820 820 820 820 820 820 820 820 820 820 820 820 820 820 820 820 820 820 820 821 821 821 821 822 822 822 823 823 823 824 824 824 824 824
786 787 789 790 791 793 794 796 798 800 801 802 804 805 806 808 809 810 812 813 814 815 815 816 817 817 818 818 818 818 818 818 818 818 818 818 818 818 818 818 818 818 818 818 818 818 818 818 818 818 818 818 818 819 819 819 819 819 820 820 820 821 821 821 822 822 822 822 822
785 786 788 789 791 792 794 796 797 799 800 802 803 804 806 807 809 810 811 812 814 814 815 815 816 816 816 817 817 817 817 817 817 816 816 816 816 816 816 816 816 816 816 816 816 816 816 816 816 816 816 816 817 817 817 817 817 818 818 818 819 819 819 820 820 820 820 820 820
784 786 787 789 790 792 794 796 797 798 799 801 802 804 806 807 808 810 811 812 813 814 814 814 815 815 816 816 816 816 816 815 815 815 814 814 814 814 814 814 814 814 814 814 814 814 814 814 814 814 814 814 814 815 815 815 816 816 816 816 817 817 817 818 818 818 818 818 818
784 786 787 789 790 792 794 795 796 797 799 800 802 804 805 807 808 809 810 811 812 813 813 814 814 814 815 815 814 814 814 814 813 813 813 813 813 813 813 812 812 812 812 812 812 812 812 812 812 812 812 812 813 813 813 814 814 814 814 814 815 815 816 816 817 817 816 816 817
784 786 787 789 790 792 793 794 795 797 798 800 802 803 804 806 807 809 810 810 811 812 812 812 813 813 813 813 813 812 812 812 812 812 811 811 811 811 811 810 810 810 810 810 810 810 810 810 810 810 810 811 811 811 812 812 812 812 812 813 813 813 814 814 814 815 814 814 815
784 786 787 789 790 791 792 794 795 796 798 799 801 803 804 806 807 808 809 809 810 810 811 811 812 812 812 812 811 811 810 810 810 810 810 810 810 809 809 809 809 808 808 809 808 808 808 808 808 809 809 809 809 809 810 810 810 810 811 811 811 812 812 812 812 813 813 813 813